Athens, TX

1:24 PM CDT on October 21, 2019 (GMT -0500)
Athens

Weather History for KF44 - September, 2019

Change the Weather History Date:

Sunday, September 15, 2019

  Actual Average (KTYR) Record (KTYR)
Temperature  
Mean Temperature 82 °F 76 °F  
Max Temperature 96 °F 87 °F 105 °F (1939)
Min Temperature 69 °F 66 °F 48 °F (1902)
Degree Days  
Heating Degree Days 0 0  
Month to date heating degree days 0  
Since 1 July heating degree days 0  
Cooling Degree Days 18 11  
Month to date cooling degree days 204  
Year to date cooling degree days 2126  
Growing Degree Days 32 (Base 50)    
Moisture  
Dew Point 66 °F    
Average Humidity 60    
Maximum Humidity 88    
Minimum Humidity 32    
Precipitation  
Precipitation 0.00 in 0.11 in 1.78 in (1998)
Month to date precipitation 1.78  
Year to date precipitation 31.04  
Snow  
Snow 0.00 in - - ()
Month to date snowfall  
Since 1 July snowfall  
Since 1 September snowfall  
Snow Depth -    
Sea Level Pressure  
Sea Level Pressure 30.04 in    
Wind  
Wind Speed 1 mph (East)    
Max Wind Speed 9 mph    
Max Gust Speed 16 mph    
Visibility 10 miles    
Events      
T = Trace of Precipitation, MM = Missing Value Source: NWS Daily Summary

Daily Weather History Graph

Daily Weather History Graph

Search for Another Location

Airport or City:

Astronomy

Sep. 15, 2019 Rise Set
Actual Time 7:07 AM CDT 7:29 PM CDT
Civil Twilight 6:42 AM CDT 7:54 PM CDT
Nautical Twilight 6:13 AM CDT 8:22 PM CDT
Astronomical Twilight 5:44 AM CDT 8:51 PM CDT
Moon 8:41 PM CDT (9/15) 8:16 AM CDT (9/15)
Length of Visible Light 13h 11m
Length of Day
12h 22m
Full, 98% of the Moon is Illuminated
Sep 15
Full
Sep 21
Last Quarter
Sep 28
New
Oct 5
First Quarter
Oct 13
Full

Hourly Weather History & Observations

Time (CDT) Temp. Heat Index Dew Point Humidity Pressure Visibility Wind Dir Wind Speed Gust Speed Precip Events Conditions
12:15 AM 80.6 °F 82.7 °F 66.2 °F 61% 30.07 in 10.0 mi Calm Calm - N/A   Scattered Clouds
12:35 AM 78.8 °F - 66.2 °F 65% 30.07 in 10.0 mi Calm Calm - N/A   Scattered Clouds
12:55 AM 77.0 °F - 66.2 °F 69% 30.07 in 10.0 mi Calm Calm - N/A   Clear
1:15 AM 77.0 °F - 68.0 °F 74% 30.07 in 10.0 mi Calm Calm - N/A   Clear
1:35 AM 77.0 °F - 68.0 °F 74% 30.07 in 10.0 mi Calm Calm - N/A   Clear
1:55 AM 77.0 °F - 68.0 °F 74% 30.07 in 10.0 mi Calm Calm - N/A   Clear
2:15 AM 73.4 °F - 66.2 °F 78% 30.07 in 10.0 mi Calm Calm - N/A   Clear
2:35 AM 73.4 °F - 68.0 °F 83% 30.07 in 10.0 mi Calm Calm - N/A   Clear
2:55 AM 73.4 °F - 66.2 °F 78% 30.07 in 10.0 mi Calm Calm - N/A   Clear
3:15 AM 73.4 °F - 66.2 °F 78% 30.07 in 10.0 mi Calm Calm - N/A   Clear
3:35 AM 73.4 °F - 66.2 °F 78% 30.06 in 10.0 mi Calm Calm - N/A   Clear
3:55 AM 71.6 °F - 66.2 °F 83% 30.07 in 10.0 mi Calm Calm - N/A   Clear
4:15 AM 71.6 °F - 66.2 °F 83% 30.06 in 10.0 mi Calm Calm - N/A   Clear
4:35 AM 71.6 °F - 66.2 °F 83% 30.06 in 10.0 mi Calm Calm - N/A   Clear
4:55 AM 71.6 °F - 66.2 °F 83% 30.07 in 10.0 mi Calm Calm - N/A   Clear
5:15 AM 71.6 °F - 66.2 °F 83% 30.07 in 10.0 mi Calm Calm - N/A   Scattered Clouds
5:35 AM 71.6 °F - 66.2 °F 83% 30.07 in 10.0 mi Calm Calm - N/A   Scattered Clouds
5:55 AM 69.8 °F - 64.4 °F 83% 30.07 in 10.0 mi Calm Calm - N/A   Clear
6:15 AM 69.8 °F - 64.4 °F 83% 30.07 in 10.0 mi Calm Calm - N/A   Clear
6:35 AM 69.8 °F - 64.4 °F 83% 30.07 in 10.0 mi Calm Calm - N/A   Clear
6:55 AM 69.8 °F - 64.4 °F 83% 30.07 in 10.0 mi Calm Calm - N/A   Clear
7:15 AM 69.8 °F - 64.4 °F 83% 30.07 in 10.0 mi Calm Calm - N/A   Clear
7:35 AM 69.8 °F - 66.2 °F 88% 30.07 in 10.0 mi Calm Calm - N/A   Clear
7:55 AM 71.6 °F - 66.2 °F 83% 30.07 in 10.0 mi Calm Calm - N/A   Clear
8:15 AM 73.4 °F - 66.2 °F 78% 30.07 in 10.0 mi Calm Calm - N/A   Clear
8:35 AM 77.0 °F - 68.0 °F 74% 30.08 in 10.0 mi Calm Calm - N/A   Clear
8:55 AM 78.8 °F - 68.0 °F 69% 30.08 in 10.0 mi Calm Calm - N/A   Clear
9:15 AM 80.6 °F 82.7 °F 66.2 °F 61% 30.09 in 10.0 mi SE 3.5 mph - N/A   Clear
9:35 AM 82.4 °F 84.6 °F 66.2 °F 58% 30.08 in 10.0 mi Calm Calm - N/A   Clear
9:55 AM 82.4 °F 85.4 °F 68.0 °F 62% 30.09 in 10.0 mi Calm Calm - N/A   Clear
10:15 AM 86.0 °F 89.4 °F 68.0 °F 55% 30.09 in 10.0 mi Calm Calm - N/A   Clear
10:35 AM 86.0 °F 88.2 °F 66.2 °F 51% 30.09 in 10.0 mi Calm Calm - N/A   Clear
10:55 AM 87.8 °F 91.4 °F 68.0 °F 52% 30.09 in 10.0 mi Calm Calm - N/A   Clear
11:15 AM 87.8 °F 89.4 °F 64.4 °F 46% 30.09 in 10.0 mi ENE 6.9 mph - N/A   Clear
11:35 AM 89.6 °F 91.1 °F 64.4 °F 43% 30.08 in 10.0 mi ENE 6.9 mph - N/A   Clear
11:55 AM 91.4 °F 93.2 °F 64.4 °F 41% 30.08 in 10.0 mi ESE 5.8 mph - N/A   Clear
12:15 PM 91.4 °F 93.2 °F 64.4 °F 41% 30.07 in 10.0 mi ESE 6.9 mph - N/A   Clear
12:35 PM 91.4 °F 93.2 °F 64.4 °F 41% 30.06 in 10.0 mi ESE 8.1 mph - N/A   Clear
12:55 PM 91.4 °F 93.2 °F 64.4 °F 41% 30.06 in 10.0 mi Calm Calm - N/A   Clear
1:15 PM 93.2 °F 94.1 °F 62.6 °F 36% 30.05 in 10.0 mi ESE 3.5 mph 16.1 mph N/A   Clear
1:35 PM 95.0 °F 96.0 °F 62.6 °F 34% 30.04 in 10.0 mi SE 4.6 mph - N/A   Clear
1:55 PM 95.0 °F 96.0 °F 62.6 °F 34% 30.04 in 10.0 mi East 9.2 mph - N/A   Clear
2:15 PM 95.0 °F 97.0 °F 64.4 °F 36% 30.03 in 10.0 mi East 9.2 mph - N/A   Mostly Cloudy
2:35 PM 95.0 °F 97.0 °F 64.4 °F 36% 30.02 in 10.0 mi ESE 4.6 mph - N/A   Scattered Clouds
2:55 PM 95.0 °F 96.0 °F 62.6 °F 34% 30.01 in 10.0 mi East 8.1 mph - N/A   Mostly Cloudy
3:15 PM 95.0 °F 96.0 °F 62.6 °F 34% 30.00 in 10.0 mi ESE 6.9 mph - N/A   Mostly Cloudy
3:35 PM 95.0 °F 96.0 °F 62.6 °F 34% 30.00 in 10.0 mi East 5.8 mph - N/A   Scattered Clouds
3:55 PM 96.8 °F 98.0 °F 62.6 °F 32% 29.99 in 10.0 mi ENE 3.5 mph - N/A   Clear
4:15 PM 96.8 °F 98.0 °F 62.6 °F 32% 29.99 in 10.0 mi East 6.9 mph - N/A   Scattered Clouds
4:35 PM 95.0 °F 96.0 °F 62.6 °F 34% 29.98 in 10.0 mi ESE 8.1 mph - N/A   Scattered Clouds
4:55 PM 96.8 °F 98.0 °F 62.6 °F 32% 29.98 in 10.0 mi ENE 4.6 mph - N/A   Mostly Cloudy
5:15 PM 96.8 °F 98.0 °F 62.6 °F 32% 29.98 in 10.0 mi SE 6.9 mph - N/A   Scattered Clouds
5:35 PM 95.0 °F 97.0 °F 64.4 °F 36% 29.98 in 10.0 mi ENE 8.1 mph - N/A   Mostly Cloudy
5:55 PM 91.4 °F 93.2 °F 64.4 °F 41% 29.98 in 10.0 mi ENE 5.8 mph - N/A   Scattered Clouds
6:15 PM 91.4 °F 93.2 °F 64.4 °F 41% 29.98 in 10.0 mi ESE 4.6 mph - N/A   Clear
6:35 PM 91.4 °F 93.2 °F 64.4 °F 41% 29.98 in 10.0 mi Calm Calm - N/A   Clear
6:55 PM 91.4 °F 93.2 °F 64.4 °F 41% 29.98 in 10.0 mi Calm Calm - N/A   Clear
7:15 PM 89.6 °F 91.1 °F 64.4 °F 43% 29.98 in 10.0 mi Calm Calm - N/A   Clear
7:35 PM 89.6 °F 92.2 °F 66.2 °F 46% 29.98 in 10.0 mi Calm Calm - N/A   Clear
7:55 PM 84.2 °F 86.6 °F 66.2 °F 55% 29.98 in 10.0 mi Calm Calm - N/A   Clear
8:15 PM 84.2 °F 87.3 °F 68.0 °F 58% 29.98 in 10.0 mi Calm Calm - N/A   Clear
8:35 PM 82.4 °F 85.4 °F 68.0 °F 62% 29.99 in 10.0 mi Calm Calm - N/A   Clear
8:55 PM 80.6 °F 83.2 °F 68.0 °F 65% 29.99 in 10.0 mi Calm Calm - N/A   Clear
9:15 PM 80.6 °F 83.2 °F 68.0 °F 65% 30.00 in 10.0 mi Calm Calm - N/A   Clear
9:35 PM 80.6 °F 83.2 °F 68.0 °F 65% 30.00 in 10.0 mi Calm Calm - N/A   Clear
9:55 PM 78.8 °F - 68.0 °F 69% 30.01 in 10.0 mi Calm Calm - N/A   Clear
10:15 PM 78.8 °F - 68.0 °F 69% 30.01 in 10.0 mi Calm Calm - N/A   Clear
10:35 PM 78.8 °F - 68.0 °F 69% 30.01 in 10.0 mi Calm Calm - N/A   Clear
10:55 PM 77.0 °F - 68.0 °F 74% 30.01 in 10.0 mi Calm Calm - N/A   Clear
11:15 PM 77.0 °F - 68.0 °F 74% 30.01 in 10.0 mi Calm Calm - N/A   Clear
11:35 PM 77.0 °F - 66.2 °F 69% 30.01 in 10.0 mi Calm Calm - N/A   Clear
11:55 PM 77.0 °F - 68.0 °F 74% 30.01 in 10.0 mi Calm Calm - N/A   Clear